Sturgis, MI

3:33 PM EDT on July 26, 2017 (GMT -0400)
Kirsch Municipal

Weather History for KIRS - November, 2013

Change the Weather History Date:

Friday, November 8, 2013

  Actual Average (KHAI) Record (KHAI)
Temperature  
Mean Temperature 36 °F -  
Max Temperature 42 °F 50 °F 68 °F (2010)
Min Temperature 30 °F 33 °F 15 °F (1991)
Degree Days  
Heating Degree Days 29    
Moisture  
Dew Point 30 °F    
Average Humidity 77    
Maximum Humidity 100    
Minimum Humidity 57    
Precipitation  
Precipitation 0.00 in - - ()
Sea Level Pressure  
Sea Level Pressure 30.21 in    
Wind  
Wind Speed 2 mph (SSW)    
Max Wind Speed 10 mph    
Max Gust Speed -    
Visibility 8 miles    
Events Snow    
Averages and records for this station are not official NWS values.
T = Trace of Precipitation, MM = Missing Value Source: NWS Daily Summary

Daily Weather History Graph

Daily Weather History Graph

Search for Another Location

Airport or City:

Trip Planner

Search our weather history database for the weather conditions in past years. The results will help you decide how hot, cold, wet, or windy it might be!

Date:

Astronomy

Nov. 08, 2013 Rise Set
Actual Time 7:22 AM EST 5:27 PM EST
Civil Twilight 6:53 AM EST 5:57 PM EST
Nautical Twilight 6:20 AM EST 6:30 PM EST
Astronomical Twilight 5:47 AM EST 7:02 PM EST
Moon 12:18 PM EST (11/8) 10:48 PM EST (11/8)
Length of Visible Light 11h 03m
Length of Day
10h 04m
Waxing Crescent, 33% of the Moon is Illuminated
Nov 8
Waxing Crescent
Nov 10
First Quarter
Nov 17
Full
Nov 25
Last Quarter
Dec 2
New

Hourly Weather History & Observations

Time (EST) Temp. Windchill Dew Point Humidity Pressure Visibility Wind Dir Wind Speed Gust Speed Precip Events Conditions
12:14 AM 33.8 °F - 32.0 °F 93% - 10.0 mi Calm Calm - N/A   Mostly Cloudy
12:35 AM 33.8 °F - 33.8 °F 100% 30.16 in 10.0 mi Calm Calm - N/A   Overcast
12:55 AM 35.6 °F - 32.0 °F 87% 30.16 in 10.0 mi Calm Calm - N/A   Overcast
1:14 AM 33.8 °F - 32.0 °F 93% 30.17 in 2.0 mi Calm Calm - N/A Snow Light Snow
1:35 AM 33.8 °F - 32.0 °F 93% 30.17 in 7.0 mi Calm Calm - N/A   Overcast
1:55 AM 33.8 °F - 32.0 °F 93% 30.17 in 7.0 mi Calm Calm - N/A   Overcast
2:14 AM 33.8 °F - 32.0 °F 93% 30.17 in 7.0 mi Calm Calm - N/A Snow Light Snow
2:35 AM 33.8 °F - 32.0 °F 93% 30.18 in 5.0 mi Calm Calm - N/A Snow Light Snow
2:55 AM 33.8 °F - 33.8 °F 100% 30.18 in 5.0 mi Calm Calm - N/A   Overcast
3:14 AM 33.8 °F - 33.8 °F 100% 30.19 in 5.0 mi Calm Calm - N/A   Overcast
3:34 AM 33.8 °F 30.8 °F 33.8 °F 100% 30.19 in 5.0 mi SW 3.5 mph - N/A   Overcast
3:55 AM 33.8 °F - 33.8 °F 100% 30.18 in 5.0 mi Calm Calm - N/A   Mostly Cloudy
4:15 AM 33.8 °F - 33.8 °F 100% 30.19 in 7.0 mi Calm Calm - N/A   Overcast
4:34 AM 33.8 °F - 33.8 °F 100% 30.19 in 5.0 mi Calm Calm - N/A   Mostly Cloudy
4:55 AM 33.8 °F - 33.8 °F 100% 30.19 in 5.0 mi Calm Calm - N/A   Mostly Cloudy
5:15 AM 33.8 °F - 32.0 °F 93% 30.20 in 4.0 mi Calm Calm - N/A   Scattered Clouds
5:34 AM 33.8 °F - 32.0 °F 93% 30.21 in 4.0 mi Calm Calm - N/A   Mostly Cloudy
5:55 AM 32.0 °F - 30.2 °F 93% 30.21 in 4.0 mi Calm Calm - N/A   Scattered Clouds
6:15 AM 32.0 °F - 30.2 °F 93% 30.22 in 4.0 mi Calm Calm - N/A   Scattered Clouds
6:34 AM 30.2 °F - 30.2 °F 100% 30.23 in 4.0 mi Calm Calm - N/A   Scattered Clouds
6:55 AM 30.2 °F - 30.2 °F 100% 30.23 in 5.0 mi Calm Calm - N/A   Scattered Clouds
7:15 AM 30.2 °F - 30.2 °F 100% 30.25 in 5.0 mi Calm Calm - N/A   Mostly Cloudy
7:34 AM 30.2 °F - 30.2 °F 100% 30.25 in 5.0 mi Calm Calm - N/A   Mostly Cloudy
7:55 AM 30.2 °F - 30.2 °F 100% 30.26 in 5.0 mi Calm Calm - N/A   Clear
8:15 AM 30.2 °F - 30.2 °F 100% 30.27 in 5.0 mi Calm Calm - N/A   Clear
8:34 AM 32.0 °F - 30.2 °F 93% 30.28 in 5.0 mi Calm Calm - N/A   Clear
8:55 AM 33.8 °F - 32.0 °F 93% 30.28 in 7.0 mi Calm Calm - N/A   Scattered Clouds
9:15 AM 35.6 °F - 32.0 °F 87% 30.28 in 10.0 mi Calm Calm - N/A   Clear
9:34 AM 37.4 °F - 30.2 °F 75% 30.29 in 10.0 mi Calm Calm - N/A   Clear
9:55 AM 37.4 °F - 30.2 °F 75% 30.29 in 10.0 mi Calm Calm - N/A   Clear
10:15 AM 39.2 °F 35.9 °F 30.2 °F 70% 30.29 in 10.0 mi West 4.6 mph - N/A   Clear
10:34 AM 39.2 °F 35.0 °F 30.2 °F 70% 30.30 in 10.0 mi West 5.8 mph - N/A   Clear
10:55 AM 39.2 °F - 30.2 °F 70% 30.30 in 10.0 mi Calm Calm - N/A   Scattered Clouds
11:15 AM 39.2 °F - 26.6 °F 61% 30.30 in 10.0 mi Calm Calm - N/A   Scattered Clouds
11:34 AM 41.0 °F - 28.4 °F 61% 30.30 in 10.0 mi Calm Calm - N/A   Scattered Clouds
11:55 AM 41.0 °F - 28.4 °F 61% 30.29 in 10.0 mi Calm Calm - N/A   Scattered Clouds
12:14 PM 42.8 °F 38.6 °F 28.4 °F 57% 30.28 in 10.0 mi West 6.9 mph - N/A   Scattered Clouds
12:34 PM 42.8 °F - 28.4 °F 57% 30.27 in 10.0 mi Calm Calm - N/A   Mostly Cloudy
12:55 PM 42.8 °F 40.1 °F 28.4 °F 57% 30.25 in 10.0 mi West 4.6 mph - N/A   Clear
1:14 PM 42.8 °F 41.1 °F 28.4 °F 57% 30.25 in 10.0 mi WSW 3.5 mph - N/A   Clear
1:35 PM 42.8 °F 39.3 °F 28.4 °F 57% 30.25 in 10.0 mi West 5.8 mph - N/A   Clear
1:55 PM 42.8 °F - 28.4 °F 57% 30.24 in 10.0 mi Calm Calm - N/A   Clear
2:14 PM 42.8 °F 37.0 °F 28.4 °F 57% 30.24 in 10.0 mi WSW 10.4 mph - N/A   Mostly Cloudy
2:35 PM 42.8 °F 37.5 °F 28.4 °F 57% 30.24 in 10.0 mi SW 9.2 mph - N/A   Scattered Clouds
2:55 PM 42.8 °F 40.1 °F 28.4 °F 57% 30.23 in 10.0 mi SW 4.6 mph - N/A   Clear
3:14 PM 42.8 °F - 28.4 °F 57% 30.23 in 10.0 mi Calm Calm - N/A   Clear
3:35 PM 42.8 °F 37.5 °F 28.4 °F 57% 30.22 in 10.0 mi SSW 9.2 mph - N/A   Clear
3:55 PM 42.8 °F 38.6 °F 28.4 °F 57% 30.22 in 10.0 mi SSW 6.9 mph - N/A   Clear
4:14 PM 42.8 °F 38.0 °F 30.2 °F 61% 30.22 in 10.0 mi SW 8.1 mph - N/A   Clear
4:35 PM 42.8 °F 38.0 °F 28.4 °F 57% 30.21 in 10.0 mi SSW 8.1 mph - N/A   Clear
4:55 PM 42.8 °F 38.6 °F 30.2 °F 61% 30.22 in 10.0 mi SW 6.9 mph - N/A   Clear
5:14 PM 41.0 °F 37.1 °F 30.2 °F 65% 30.20 in 10.0 mi SSW 5.8 mph - N/A   Clear
5:35 PM 39.2 °F - 30.2 °F 70% 30.20 in 10.0 mi Calm Calm - N/A   Clear
5:55 PM 41.0 °F - 28.4 °F 61% 30.20 in 10.0 mi Calm Calm - N/A   Clear
6:14 PM 39.2 °F - 28.4 °F 65% 30.20 in 10.0 mi Calm Calm - N/A   Clear
6:35 PM 39.2 °F - 28.4 °F 65% 30.20 in 10.0 mi Calm Calm - N/A   Clear
6:55 PM 37.4 °F - 30.2 °F 75% 30.20 in 10.0 mi Calm Calm - N/A   Clear
7:14 PM 39.2 °F - 30.2 °F 70% 30.20 in 10.0 mi Calm Calm - N/A   Clear
7:35 PM 39.2 °F - 30.2 °F 70% 30.19 in 10.0 mi Calm Calm - N/A   Clear
7:55 PM 39.2 °F 35.0 °F 30.2 °F 70% 30.17 in 10.0 mi SSE 5.8 mph - N/A   Clear
8:14 PM 39.2 °F 37.0 °F 30.2 °F 70% 30.18 in 10.0 mi South 3.5 mph - N/A   Scattered Clouds
8:35 PM 39.2 °F 35.0 °F 30.2 °F 70% 30.16 in 10.0 mi SSE 5.8 mph - N/A   Mostly Cloudy
8:55 PM 39.2 °F 33.6 °F 30.2 °F 70% 30.15 in 10.0 mi SSE 8.1 mph - N/A   Scattered Clouds
9:14 PM 39.2 °F 34.2 °F 30.2 °F 70% 30.15 in 10.0 mi SSE 6.9 mph - N/A   Clear
9:35 PM 39.2 °F 34.2 °F 30.2 °F 70% 30.15 in 10.0 mi South 6.9 mph - N/A   Clear
9:55 PM 41.0 °F 37.1 °F 30.2 °F 65% 30.15 in 10.0 mi SSE 5.8 mph - N/A   Clear
10:14 PM 39.2 °F 34.2 °F 30.2 °F 70% 30.14 in 10.0 mi South 6.9 mph - N/A   Clear
10:35 PM 39.2 °F 34.2 °F 30.2 °F 70% 30.14 in 10.0 mi SSE 6.9 mph - N/A   Clear
10:55 PM 41.0 °F 37.1 °F 30.2 °F 65% 30.14 in 10.0 mi South 5.8 mph - N/A   Clear
11:14 PM 41.0 °F 36.4 °F 30.2 °F 65% 30.13 in 10.0 mi SSE 6.9 mph - N/A   Clear
11:35 PM 41.0 °F 35.8 °F 30.2 °F 65% 30.12 in 10.0 mi South 8.1 mph - N/A   Clear
11:55 PM 41.0 °F 35.2 °F 30.2 °F 65% 30.12 in 10.0 mi South 9.2 mph - N/A   Clear